Theta_e
290 292 292 290 290 290 289 290 286 289 289 292 297 302 305 306 307 309 320 324 325 329 332 335 335 336 336 336 337 338 336 336 338 339 338 337 336 335 334 334 333 332 332 333
287 291 292 289 291 291 291 292 291 291 290 297 301 304 304 305 306 307 313 323 326 329 331 332 333 334 333 333 333 334 332 332 333 333 332 334 334 335 334 332 335 334 333 333
284 290 290 286 290 291 292 294 293 289 294 299 299 301 303 305 306 307 310 323 325 328 330 332 332 333 331 329 330 330 331 331 331 332 331 332 332 332 331 335 336 336 334 333
286 288 280 291 296 295 293 295 296 296 297 299 300 303 305 306 306 307 310 318 326 331 331 333 332 331 330 330 330 329 330 329 330 328 329 330 331 330 336 336 336 335 334 335
283 284 288 291 294 293 293 293 299 298 299 301 302 304 305 308 308 309 311 315 330 333 334 334 331 329 330 329 329 329 329 328 328 328 328 327 328 331 335 334 335 335 335 335
286 281 279 290 296 301 301 290 301 303 301 302 304 298 302 307 312 318 321 322 332 333 332 333 330 331 329 328 329 328 328 329 329 329 328 329 331 332 335 334 333 332 334 335
284 283 287 295 297 300 287 291 305 306 306 307 303 306 310 313 314 316 326 332 335 335 330 332 330 331 328 329 327 329 329 330 328 329 329 333 335 335 334 332 333 334 333 334
287 283 281 296 294 289 298 301 301 305 305 306 309 312 310 311 313 319 324 332 330 329 329 331 331 329 328 329 330 332 330 328 329 331 327 330 334 333 332 334 333 333 333 330
285 286 296 297 293 295 294 294 300 304 307 307 309 311 315 314 316 316 318 328 330 329 331 330 330 329 330 331 331 329 330 330 331 330 331 332 334 334 333 333 330 331 331 328
287 293 292 296 297 299 302 303 303 306 306 308 311 313 317 316 317 317 328 328 331 330 329 327 327 330 332 330 329 329 328 329 331 330 331 334 333 335 336 336 334 333 330 329
292 293 296 296 295 296 300 302 301 304 306 311 316 317 321 320 323 326 330 329 329 329 327 325 327 331 330 330 330 328 330 329 331 328 332 334 332 329 336 329 325 334 332 331
288 295 295 294 296 298 298 300 302 303 305 313 318 318 318 319 326 328 330 328 328 327 326 325 328 331 331 329 331 329 327 329 327 328 329 330 330 328 297 299 296 296 298 317
295 299 298 297 297 299 298 301 302 303 304 308 314 314 317 319 323 322 326 328 323 324 324 326 327 329 330 331 331 330 332 331 328 325 329 327 329 328 326 315 297 295 296 298
301 300 296 298 296 300 302 302 302 302 303 307 311 312 315 316 318 320 322 325 331 325 325 327 327 326 329 330 331 329 333 312 328 327 326 330 330 328 328 326 326 325 301 303
299 301 298 299 300 300 301 302 298 299 300 302 308 306 309 312 313 315 320 323 324 323 325 324 326 327 328 329 330 329 328 327 328 329 328 325 328 328 329 329 326 325 321 308
299 299 298 298 299 299 299 299 297 297 298 299 301 304 306 308 308 309 310 316 314 314 318 322 324 326 328 329 330 330 328 312 316 329 328 327 328 325 327 328 328 327 327 325
297 296 296 296 298 299 298 298 297 298 297 299 299 300 303 304 306 306 306 307 307 308 311 313 319 322 326 331 332 328 328 328 312 328 326 327 325 325 327 327 327 326 327 325
302 301 299 298 298 299 298 298 297 297 297 298 299 299 298 299 298 298 301 304 304 304 306 309 314 322 325 323 325 329 328 326 326 327 327 327 327 327 325 324 325 328 328 322
303 299 298 298 300 300 300 300 298 298 299 298 297 297 298 297 295 295 295 294 295 297 300 308 305 315 324 314 314 328 328 326 325 326 328 320 329 328 327 326 325 325 329 327
302 300 298 298 300 300 299 300 301 298 299 298 297 296 294 296 297 294 293 292 292 295 300 304 314 316 319 318 309 324 326 328 328 328 327 327 327 328 328 318 324 324 329 328
302 300 299 299 299 299 300 300 300 300 300 300 298 297 296 295 294 294 293 289 292 295 297 298 303 312 313 313 313 313 311 312 315 319 321 320 322 320 319 320 320 319 318 322
304 301 300 299 299 299 300 300 300 300 300 299 297 297 298 297 295 291 291 290 293 290 296 299 300 291 305 301 306 303 303 304 304 303 304 305 306 306 306 306 306 307 308 308
305 304 303 300 300 301 301 301 299 299 300 300 298 296 294 293 293 290 288 291 293 291 295 296 289 289 291 306 302 299 298 298 298 298 298 298 298 298 297 298 298 300 301 300
306 306 304 304 303 301 300 301 301 300 299 299 301 301 298 294 292 294 293 291 289 290 292 292 291 289 293 300 298 297 296 296 295 296 296 293 295 296 296 295 295 295 296 295
307 307 307 305 303 301 302 302 302 302 301 299 300 300 300 299 295 294 296 296 290 294 295 288 288 290 298 296 295 295 295 296 296 296 295 295 295 295 295 295 295 296 296 296
308 307 307 307 306 305 303 302 301 301 301 300 299 300 300 300 299 298 298 296 298 295 297 298 298 296 296 297 298 297 296 296 296 295 295 296 296 296 297 297 297 297 297 298
308 302 307 306 307 307 305 302 301 301 301 301 300 300 300 300 299 299 295 299 298 298 298 298 299 297 299 299 298 297 298 298 295 299 299 299 299 299 298 298 297 297 297 297
Wind_Speed
25 28 24 17 20 12 18 19 21 20 12 14 26 30 10 9 12 12 13 7 4 2 5 5 13 16 16 16 15 14 14 14 13 12 12 11 11 10 10 10 9 9 7 4
22 23 26 23 22 18 19 25 24 22 20 14 21 20 14 11 11 12 8 7 3 4 8 5 15 16 15 15 14 13 12 12 11 11 12 11 10 8 9 9 6 5 6 4
19 21 22 20 22 19 20 24 21 22 20 16 17 18 15 13 11 12 6 8 7 8 7 8 15 16 14 14 14 14 13 13 12 12 10 8 8 7 10 6 4 5 5 5
9 13 10 15 13 11 10 14 22 22 20 18 17 16 17 15 13 10 9 7 11 13 8 6 14 16 14 14 14 14 13 12 12 11 11 9 12 10 7 6 7 5 3 6
6 10 16 19 4 10 10 19 19 20 19 15 15 16 16 16 12 13 10 5 11 13 15 6 16 16 15 15 14 13 13 11 12 14 11 8 11 10 6 8 7 5 4 5
4 6 6 6 8 20 12 15 16 16 19 17 12 11 9 6 13 6 10 12 13 12 14 11 17 15 14 14 13 14 11 12 11 11 16 11 12 6 6 8 8 5 7 8
12 9 6 9 12 11 12 1 7 8 6 9 8 11 8 6 8 7 13 9 18 19 13 13 16 15 14 15 14 10 12 11 10 6 10 8 7 6 6 7 6 4 8 8
4 7 5 8 14 11 13 14 13 16 8 10 14 15 12 12 10 8 13 11 17 16 14 18 16 14 14 14 8 13 13 15 10 9 7 8 8 7 7 5 6 6 6 7
3 5 10 13 14 22 23 23 22 18 15 10 12 16 15 10 5 7 16 11 15 16 18 18 15 14 17 9 9 11 15 11 13 9 5 9 7 6 4 6 7 6 5 5
4 4 12 11 12 16 11 12 16 17 17 16 14 19 12 4 6 11 8 16 16 20 20 18 15 14 16 7 7 14 14 8 8 6 6 6 7 5 5 6 4 5 5 4
11 5 14 5 14 16 16 8 5 10 14 16 11 4 6 8 8 6 14 12 17 17 17 17 16 19 13 10 13 7 14 7 7 8 4 9 9 5 5 7 3 3 4 4
5 16 9 10 13 17 14 12 11 10 13 14 7 7 8 6 8 8 5 12 15 17 17 17 17 20 20 9 9 10 8 10 7 9 9 6 10 9 15 11 11 10 7 3
5 11 10 9 9 12 11 11 13 13 13 12 11 14 6 1 5 9 14 9 15 17 17 17 16 17 16 20 16 14 7 9 8 6 11 7 6 9 8 7 14 15 15 11
13 10 9 13 8 9 9 10 13 12 12 14 10 8 8 8 11 14 13 11 13 13 17 15 14 14 12 13 14 12 9 7 7 9 6 12 6 4 8 9 8 7 13 11
10 13 6 13 11 13 13 10 13 13 13 12 11 13 12 13 13 12 12 13 15 14 14 10 11 8 5 14 13 12 10 9 6 9 6 10 10 5 4 8 8 10 8 7
12 13 11 14 16 16 13 14 14 13 12 12 13 14 13 13 12 14 15 14 17 14 15 12 10 8 8 8 12 11 7 6 5 10 7 9 11 8 8 4 8 9 10 10
11 14 15 16 15 16 15 12 11 11 11 11 13 10 11 11 13 14 14 14 16 15 13 13 13 9 9 11 7 8 8 6 6 6 7 8 9 7 8 10 8 8 10 11
11 12 11 11 14 14 13 14 11 10 10 11 12 13 13 13 12 13 13 12 12 14 11 9 11 9 6 11 11 12 11 10 7 5 7 5 6 9 8 6 6 11 12 11
11 11 10 11 14 14 13 12 11 9 10 11 11 12 11 12 13 14 13 13 13 10 11 9 10 7 10 16 11 5 2 12 8 5 8 8 1 5 6 7 8 8 13 11
12 9 10 12 13 15 14 12 12 12 11 11 10 11 13 12 11 12 11 13 9 6 8 9 8 10 13 17 17 12 13 15 13 12 12 5 3 4 7 8 16 14 9 10
12 8 11 12 11 13 14 11 12 13 13 12 12 13 13 14 15 11 12 8 11 10 9 10 11 8 10 11 13 12 13 13 13 12 13 12 12 14 14 14 15 14 12 13
11 9 10 11 9 10 12 12 13 13 13 13 13 12 12 12 13 15 14 9 7 13 8 8 7 8 10 13 13 13 13 12 11 11 12 12 13 13 13 13 13 12 13 13
10 8 10 10 9 11 11 12 13 12 13 13 13 13 12 11 10 9 9 10 8 9 7 8 9 9 9 13 12 12 13 14 12 12 12 13 13 12 12 12 12 12 12 13
8 8 9 9 9 9 11 11 11 12 12 11 11 11 9 8 8 6 5 4 8 10 9 8 9 10 11 12 12 12 12 13 11 12 13 15 12 11 11 11 12 11 11 12
7 9 7 7 8 8 9 9 8 10 11 11 12 12 12 9 7 5 5 5 4 7 8 7 9 13 13 12 12 14 10 12 12 12 11 13 12 11 11 10 11 11 11 10
7 5 6 4 7 6 5 6 6 6 7 8 8 8 8 8 8 7 8 9 11 11 11 9 10 11 11 11 12 12 11 9 11 12 10 11 12 10 9 10 11 11 10 11
9 4 6 6 6 4 6 6 6 7 6 7 9 9 8 8 7 8 9 10 11 11 11 12 12 12 12 13 12 12 12 10 11 13 11 11 12 12 12 11 9 11 12 13
Wind_Direction
271 276 275 263 263 256 267 261 248 270 282 260 287 295 15 14 323 324 84 84 355 338 84 123 134 135 130 131 130 130 130 130 134 135 136 138 141 142 143 150 154 161 167 110
266 269 273 269 265 253 259 271 274 275 269 257 256 268 300 318 326 310 57 116 171 184 167 169 144 137 134 129 131 130 128 129 139 143 145 144 141 135 147 159 158 98 55 120
256 257 257 262 248 246 248 261 264 267 274 270 268 275 285 288 291 297 328 135 185 190 197 204 142 131 133 133 133 136 137 139 141 147 118 116 127 179 154 115 101 91 151 109
271 285 247 241 253 247 280 277 282 259 261 272 280 288 277 274 279 273 284 150 196 191 174 204 136 138 139 139 145 145 145 136 114 112 129 163 167 161 118 128 116 137 104 101
243 234 275 289 2 233 261 252 254 258 270 272 259 262 259 258 268 265 267 221 194 179 171 206 144 143 148 156 151 142 108 105 143 155 137 192 153 135 135 133 158 153 138 107
262 255 262 55 35 339 331 270 244 292 255 265 249 252 249 211 228 308 239 159 179 178 161 207 139 157 160 159 118 117 131 183 149 140 152 191 133 128 143 154 172 153 114 90
240 252 263 359 9 312 263 7 341 15 333 307 277 263 328 6 316 343 302 174 168 162 171 169 152 161 163 125 129 142 173 123 110 126 125 122 128 117 159 189 138 142 109 97
238 241 252 359 314 243 289 327 320 307 335 320 305 305 285 279 279 330 309 164 169 155 180 142 161 168 141 124 147 180 159 116 114 117 147 151 139 162 175 131 151 149 142 124
246 269 289 292 279 269 269 271 272 282 305 308 292 284 271 261 317 283 286 163 188 159 147 145 163 170 122 129 196 142 118 128 146 146 144 144 154 171 204 175 173 166 156 141
278 276 269 290 294 338 344 253 229 260 299 291 285 272 268 261 225 252 229 150 200 158 145 145 164 154 132 162 165 123 121 129 137 134 143 148 144 154 173 172 182 179 146 162
305 324 317 11 7 344 353 17 311 282 289 273 276 260 340 318 263 205 223 178 144 149 140 150 166 133 140 173 135 136 132 120 142 130 152 100 68 37 102 54 20 146 142 184
329 345 332 354 343 341 350 4 3 346 340 324 336 21 5 334 310 244 191 139 135 135 144 154 167 143 149 153 158 154 144 163 169 144 143 133 134 107 52 67 64 56 37 140
347 337 358 2 344 336 338 7 15 3 349 357 23 36 344 69 30 70 33 81 135 143 148 158 160 149 151 167 182 151 180 132 152 143 134 136 122 124 123 77 68 50 43 57
39 9 1 356 342 2 27 22 35 24 16 17 31 37 37 51 52 58 63 50 72 119 147 156 155 148 167 155 147 160 149 147 189 138 137 136 139 147 129 141 140 114 51 69
27 44 358 342 13 35 20 20 39 33 28 28 42 41 40 55 56 58 60 67 64 50 23 132 111 95 174 148 156 156 141 190 193 128 113 123 145 152 129 145 126 114 120 91
31 45 12 7 13 45 28 29 29 27 32 34 30 35 46 55 63 51 43 46 66 53 33 45 51 30 349 147 162 152 135 52 10 127 150 134 145 152 155 170 128 146 146 133
23 41 21 9 9 42 48 46 36 30 40 40 49 38 58 65 65 71 59 55 60 56 40 23 4 2 0 359 330 172 143 154 324 178 170 147 137 132 144 151 160 141 120 139
58 59 46 352 18 34 51 62 43 26 50 41 44 50 53 54 60 51 48 60 67 61 45 9 351 341 33 8 335 288 146 153 209 219 140 151 137 138 149 151 131 130 115 148
65 64 59 22 27 47 42 53 70 34 66 50 49 41 50 55 55 54 47 47 36 41 14 355 319 357 34 7 346 282 5 152 193 207 109 94 158 149 147 150 148 150 126 143
73 68 69 51 35 43 56 34 66 76 46 72 64 63 52 39 63 72 55 50 22 1 342 358 33 36 40 31 28 33 21 25 31 44 33 88 195 36 52 70 45 25 111 142
89 71 69 61 50 48 58 49 51 63 78 58 67 67 71 64 50 45 58 40 3 351 356 23 25 50 50 51 53 50 44 38 39 42 48 52 50 51 46 45 45 43 39 49
96 85 81 77 55 64 64 60 62 56 60 65 56 48 54 61 74 61 46 35 6 350 29 24 12 5 69 72 63 61 58 54 53 52 56 55 53 57 54 51 54 52 49 47
105 106 93 89 87 73 60 67 61 60 62 68 65 66 61 54 51 58 53 29 42 10 46 47 10 24 59 74 71 67 64 62 59 62 61 60 61 61 59 57 56 56 59 59
120 106 101 107 105 91 83 77 82 83 77 63 67 75 78 78 63 64 87 79 56 58 57 47 40 47 57 76 74 73 68 69 64 66 71 68 62 64 65 64 62 54 52 54
139 122 126 114 110 100 108 112 107 100 94 84 82 78 83 77 81 91 82 78 147 101 76 68 56 55 75 80 78 75 73 75 71 71 71 78 68 65 66 67 73 71 65 56
151 174 142 148 102 112 129 113 100 92 93 90 82 82 94 100 104 94 81 86 82 79 69 62 79 78 71 69 81 91 93 92 95 95 92 82 79 75 65 63 68 61 59 70
169 173 143 159 147 148 93 97 116 111 98 98 97 97 93 89 83 82 85 88 79 75 75 74 71 71 85 95 94 84 75 68 72 88 88 86 95 101 96 91 81 77 66 63